User: anonymous   Login
Location: Bowman Observatory
(41.0326°N, 73.6210°W)
Time: 15:40:09
(UTC-05:00)
Language:

Cosmos 2297 - Orbit

View from above orbital plane
View from above orbital plane
View from above satellite
View from above satellite

Ground track
Ground track

The orbit data is extracted from the following two-line orbital elements,

1 23404U 94077A   14355.63000118 -.00000096  00000-0 -25654-4 0  9428
2 23404 071.0127 034.8219 0013225 088.9657 040.0635 14.13410064 35691
Epoch (UTC): 21 December 2014 15:07:12
Eccentricity: 0.0013225
inclination: 71.0127°
perigee height: 838 km
apogee height: 857 km
right ascension of ascending node: 34.8219°
argument of perigee: 88.9657°
revolutions per day: 14.13410064
mean anomaly at epoch: 40.0635°
orbit number at epoch: 3569

The dashed part of the orbit path shows where the satellite is in the earth's shadow,  

DLR